DMSP 5D-2 F13 DEB

Satellite information

Favourite Embed

Satellite Type and Status

DEBRISIN ORBIT

Key statistics

Satellite DMSP 5D-2 F13 DEB at a glance.

Uptime

11063

Days in orbit

Revolutions

≈ 14.3

Per day

Orbit

SSO

Sun Synchronous Orbit

Inclination

98.9

Latest

Satellite identification and parameters

Extended collection of information and parameters for DMSP 5D-2 F13 DEB.

Object identification

Identified? True

Debris? True

Object name: DMSP 5D-2 F13 DEB

International designator: 1995-015JM

Object number (NORAD): 42319

Object ID (CCSDS): 42319

Country: UNITED STATES OF AMERICA (US)

Current information (Y/N): Y

RCS size: SMALL

Orbital parameters

Period: 100.503 minutes

Inclination: 98.8853 deg

SMA: 7160.566 km

Apoapsis: 798.905 km

Periapsis: 765.958 km

RAAN: 217.8312 deg

Eccentricy: 0.0023006

Argument of periapsis: 256.0799 deg

Mean anomaly: 103.7825 deg

Mean motion: 14.3278727 rev/day

Mean motion (dot): 0.00005774 rev/day2

B* drag term: 0.0021279 1/REarth

Two-line elements (TLE)

Creation date: July 6, 2025, 10:56 p.m.

Reference frame: TEME

Reference center: EARTH

Epoch: July 5, 2025, 7:18 a.m. UTC

TLE line 0: 0 DMSP 5D-2 F13 DEB

TLE line 1: 1 42319U 95015JM 25186.30442839 .00005774 00000-0 21279-2 0 9990

TLE line 2: 2 42319 98.8853 217.8312 0023006 256.0799 103.7825 14.32787270528546

Live tracking on map

Real-time ground track for satellite DMSP 5D-2 F13 DEB.

In-orbit conjunctions

A list of the most updated potential collisions computed for object DMSP 5D-2 F13 DEB.

Target Orbit TCA Probability of collision Miss distance Type
COSMOS 783 LEO 2025-05-24 16:09:35 0.0001892225 262.0 (m) PAYLOAD
METEOR 2-8 DEB LEO 2025-02-16 07:23:58 0.0001198789 129.0 (m) DEBRIS
CZ-6A DEB LEO 2025-01-12 12:42:40 0.001194779 232.0 (m) DEBRIS
COSMOS 2298 LEO 2024-12-10 09:50:10 0.0002211415 267.0 (m) PAYLOAD

Associated space launch

Military meteorological satellite

DMSP 5D-2 F13 DEB was lifted into orbit during the mission ‘Atlas E | DMSP-5D2 F13’, on board a Atlas E space rocket.

The launch took place on March 24, 1995, 2:05 p.m. from Space Launch Complex 3W.

For more information about the launch, click the button.

Launch to space Atlas E | DMSP-5D2 F13
Atlas E | DMSP-5D2 F13

Agency: N/A

Status: Launch Successful

Launch date: March 24, 1995, 2:05 p.m. UTC

Rocket: Atlas E

Launch pad: Space Launch Complex 3W

Location: Vandenberg SFB, CA, USA

...

Latest news about this satellite

There are no fresh news available about this satellite. Check back as we update our databases every day.


Newsletter sign-up

Weekly statistics, charts and insights to help you stay on top of the space industry.